Location: Atzmannsricht
(49.5536°N, 11.8734°E)
Time: 07:58:28
(UTC+00:00)

Daily predictions for brighter satellites

Satellite Brightness Start Highest point End
(mag) Time Altitude Azimuth Time Altitude Azimuth Time Altitude Azimuth
Cosmos 2279 Rocket 4.4 16:11:29 10° N 16:17:25 42° ENE 16:23:18 10° SE
Cosmos 1315 Rocket 3.1 16:15:23 10° N 16:19:13 44° ENE 16:23:03 10° SSE
Cosmos 1503 Rocket 4.2 16:16:34 10° S 16:21:50 62° ESE 16:27:10 10° NNE
CZ-4 R/B 3.0 16:20:27 10° E 16:22:51 15° ENE 16:25:13 10° NNE
Cosmos 2227 4.4 16:17:26 10° S 16:22:55 56° ESE 16:28:28 10° NE
Cosmos 1536 Rocket 3.6 16:19:13 10° S 16:23:37 87° E 16:28:04 10° N
COSMO-SKYMED 1 4.0 16:21:29 10° NE 16:24:39 19° E 16:27:49 10° SE
Cosmos 2227 Rocket 3.6 16:20:50 10° WSW 16:25:55 33° NW 16:31:01 10° NNE
TIMED 4.5 16:21:57 10° NNW 16:26:21 73° ENE 16:30:42 10° SSE
ATLAS 2AS CENTAUR R/B 3.3 16:21:07 10° SW 16:29:05 74° NW 16:36:53 10° NE
Cosmos 1634 Rocket 4.0 16:24:58 10° N 16:31:15 78° E 16:37:31 10° SSE
Cosmos 1844 Rocket 4.2 16:30:21 10° SE 16:33:52 17° E 16:37:24 10° ENE
Cosmos 1025 Rocket 4.1 16:30:29 10° SSW 16:34:40 48° WNW 16:38:56 10° N
CZ-2C R/B 3.8 16:30:40 10° SE 16:35:28 35° ENE 16:40:30 10° N
H-2A R/B 2.7 16:33:18 10° S 16:37:18 74° WSW 16:41:31 10° NNW
Okean-O 3.8 16:34:07 10° ESE 16:37:26 21° ENE 16:40:45 10° NNE
H-2A R/B 3.1 16:34:40 10° ESE 16:38:31 23° ENE 16:42:27 10° N
CZ-4B R/B 2.6 16:36:15 10° NE 16:39:02 23° E 16:41:46 10° SSE
Okean O Rocket 1.6 16:35:43 10° SSE 16:40:09 81° ENE 16:44:37 10° NNW
SeaSat 1 3.9 16:36:36 10° NNE 16:41:01 34° NW 16:45:26 10° WSW
Cosmos 773 Rocket 3.9 16:35:59 10° NNW 16:41:11 73° ENE 16:46:18 10° SSE
YAOGAN 6 4.4 16:38:48 10° SSW 16:42:06 36° W 16:45:28 10° NNW
SMAP 3.3 16:37:32 10° S 16:42:11 75° WSW 16:46:52 10° NNW
Cosmos 1626 2.2 16:39:19 10° S 16:43:01 84° W 16:46:44 10° N
CZ-4B R/B 3.4 16:38:41 10° SSE 16:44:14 83° WSW 16:49:55 10° NNW
SL-24 R/B 4.3 16:40:25 10° SSE 16:44:46 83° WSW 16:49:27 10° NNW
Aureole 2 Rocket 4.1 16:46:11 10° SE 16:47:40 13° E 16:48:02 13° E
AQUARIUS 4.5 16:44:38 10° S 16:49:07 73° WSW 16:53:38 10° NNW
Cosmos 1603 4.4 16:44:39 10° NW 16:50:16 60° WSW 16:55:53 10° S
Cosmos 2297 Rocket 4.2 16:46:24 10° W 16:50:40 21° NW 16:54:58 10° N
Meteor 2-10 Rocket 3.9 16:45:30 10° N 16:50:53 47° ENE 16:56:01 10° SE
OPS 8737 4.3 16:52:56 10° NW 16:56:01 75° NE 16:59:57 10° SE
Cosmos 1606 Rocket 3.5 16:51:45 10° N 16:56:10 83° E 17:00:35 10° S
CZ-2D R/B 3.5 16:53:13 10° SE 16:56:55 45° ENE 17:00:36 10° N
H-2A R/B 2.1 16:53:08 10° NNE 16:57:38 87° WNW 17:02:01 10° SSW
USA 234 3.7 16:52:59 13° ENE 16:58:38 47° N 17:04:51 10° WNW
YAOGAN 1 3.3 16:55:52 10° SE 16:59:37 30° ENE 17:03:23 10° N
Cosmos 1892 Rocket 3.8 16:55:55 10° SSE 17:00:03 45° E 17:04:11 10° NNE
CZ-4C R/B 4.1 16:58:32 10° N 17:01:31 39° WNW 17:04:29 10° SW
ATLAS 5 CENTAUR R/B 1.5 16:57:54 10° SW 17:01:57 79° NW 17:06:05 13° NE
Helios 1A Rocket 3.8 17:02:00 10° ESE 17:05:29 27° ENE 17:09:00 10° N
SL-14 R/B 3.7 17:01:41 10° SSW 17:05:31 63° WNW 17:09:26 10° N
MOS 1 Rocket 3.6 17:03:00 10° NNE 17:07:01 36° E 17:10:59 10° SSE
RESURS DK-1 3.4 17:03:26 10° SW 17:07:23 43° NW 17:11:23 10° NNE
Cosmos 2228 3.4 17:03:54 10° NNW 17:08:08 67° W 17:12:23 10° S
ATLAS 3B R/B 4.3 17:01:49 10° NW 17:08:10 39° WSW 17:14:45 10° S
SKYMED 2 3.7 17:08:43 10° NNE 17:13:01 55° E 17:17:16 10° S
Meteor 2-5 Rocket 4.0 17:08:58 10° SSW 17:14:31 69° WNW 17:20:03 10° N
Cosmos 1538 Rocket 3.9 17:09:40 10° NNW 17:14:53 81° ENE 17:20:03 10° SSE
Aureole 3 3.6 17:11:43 10° N 17:15:04 32° ENE 17:17:57 10° SE
CZ-4C R/B 3.2 17:10:42 10° W 17:15:42 40° NNW 17:21:18 12° NE
CZ-3B R/B 1.6 17:14:39 10° NW 17:16:53 57° NNE 17:20:09 18° ESE
SJ 16-02 2.2 17:13:35 10° SSE 17:17:23 29° E 17:18:56 23° ENE
Nadezhda 4 Rocket 4.2 17:12:49 10° SSE 17:18:46 48° E 17:24:41 10° NNE
Cosmos 1777 Rocket 3.9 17:15:25 10° SSW 17:20:39 73° ESE 17:25:57 10° NNE
Cosmos 2263 Rocket 2.8 17:17:09 10° SW 17:22:45 57° NW 17:28:21 10° NNE
Cosmos 1455 2.3 17:21:58 10° N 17:25:40 47° ENE 17:29:22 10° SSE
Cosmos 2058 Rocket 3.0 17:23:05 10° N 17:27:37 87° E 17:32:08 10° S
COSMOS 2406 4.2 17:26:41 10° NNW 17:31:32 27° NE 17:32:43 25° ENE
X-37B 2.7 17:30:54 10° SSW 17:32:59 16° SSE 17:33:14 16° SSE
Meteor 2-13 Rocket 4.4 17:31:12 10° S 17:37:12 62° E 17:43:16 10° NNE
ARGOS 3.3 17:32:48 10° SE 17:37:56 49° ENE 17:43:06 10° N
Okean 1-7 Rocket 3.5 17:37:02 10° S 17:41:33 79° E 17:46:09 10° NNE
Lacrosse 5 1.8 17:36:34 10° WNW 17:41:39 84° SW 17:45:00 22° SE
CREW DRAGON DEMO-1 DEB 2.5 17:38:52 10° WNW 17:41:48 88° NE 17:41:52 84° E
NOSS 3-1 (C) 4.1 17:34:49 10° NW 17:41:50 56° NE 17:47:11 23° ESE
ERS-2 1.9 17:42:02 30° NNE 17:43:41 71° ESE 17:47:18 10° S
ISS -2.6 17:42:13 10° SSW 17:45:00 29° SSE 17:45:00 29° SSE
Cosmos 1939 Rocket 4.5 17:41:23 10° SSW 17:45:14 37° W 17:49:04 10° NNW
CZ-2C R/B 3.5 17:45:49 30° ESE 17:45:49 30° ESE 17:50:12 10° SSE
PSLV R/B 3.9 17:43:31 23° NNE 17:46:03 63° ESE 17:50:13 10° S
CSL-04 Debris 4.1 17:42:43 10° SSE 17:48:00 60° ENE 17:53:19 10° N
COSMOS 2455 2.8 17:44:03 10° SSW 17:50:05 87° SE 17:54:02 23° NE
Cosmos 1626 Rocket 3.5 17:48:30 10° S 17:52:47 56° E 17:54:01 40° NE
Cosmos 1833 Rocket 3.5 17:49:47 10° NNW 17:54:41 31° NE 17:54:41 31° NE
Cosmos 1844 3.8 17:49:30 10° S 17:55:00 55° ESE 17:57:11 35° NE
Cosmos 2026 Rocket 4.2 17:50:09 10° SSE 17:55:52 44° E 18:01:42 10° NNE
Cosmos 2082 Rocket 3.6 17:52:06 10° N 17:55:56 22° NNE 17:55:56 22° NNE
USA 281 4.3 17:56:41 23° NE 17:56:47 23° NE 18:01:43 10° N
CZ-4 R/B 1.7 17:53:19 10° S 17:57:25 67° WSW 18:01:27 10° NNW
USA 229 DEB 4.0 17:51:47 10° NW 17:58:48 53° NE 18:01:49 35° E
USA 229 4.0 17:51:53 10° NW 17:58:53 53° NE 18:01:52 35° E
COSMO-SKYMED 1 3.4 17:56:53 10° N 18:01:07 51° WNW 18:05:20 10° SW
DMSP B5D1-3 4.4 18:01:31 27° NNE 18:04:17 64° ESE 18:09:20 10° S
USA 267 4.0 18:04:12 30° ESE 18:04:47 30° SE 18:10:26 10° S
SL-08 RB Rocket 3.8 18:05:15 52° NE 18:05:15 52° NE 18:09:12 10° N
CZ-4B R/B 3.6 18:08:20 10° N 18:11:13 26° WNW 18:14:02 10° SW
Okean-O 3.3 18:09:14 10° S 18:13:34 54° W 18:17:57 10° NNW
NOSS 3-1 (A) 4.1 18:07:20 10° NW 18:14:23 56° NE 18:16:57 41° E
CZ-2C R/B 4.4 18:10:14 10° SSW 18:15:14 42° W 18:20:32 10° NNW
Cosmos 923 Rocket 4.2 18:11:13 10° NNW 18:16:33 71° WSW 18:21:50 10° SSE
Cosmos 1844 Rocket 2.6 18:11:19 10° SSW 18:17:00 87° WNW 18:19:24 37° NNE
H-2A R/B 2.4 18:12:36 10° S 18:17:31 61° WSW 18:22:36 10° NNW
Meteor 1-21 Rocket 4.2 18:13:54 10° SSW 18:19:26 82° WNW 18:25:02 10° N
Aureole 2 Rocket 3.9 18:17:24 10° SW 18:19:28 32° W 18:19:28 32° W
ATLAS 2AS CENTAUR R/B 4.1 18:14:13 10° W 18:21:18 34° NNW 18:25:31 21° NNE
Cosmos 2195 Rocket 4.4 18:15:07 10° S 18:21:26 78° E 18:27:47 10° NNE
Meteor 2-8 Rocket 4.3 18:16:02 10° N 18:22:10 85° E 18:28:17 10° S
Meteor 2-15 4.3 18:16:44 10° N 18:22:52 63° ENE 18:24:42 44° SE
Cosmos 1680 Rocket 3.5 18:18:42 10° NNW 18:23:59 79° WSW 18:26:36 30° SSE
Cosmos 1898 Rocket 4.2 18:20:07 10° S 18:23:42 40° SSE 18:23:42 40° SSE
Cosmos 1627 Rocket 4.3 18:25:07 10° S 18:31:18 81° E 18:37:35 10° N
Cosmos 2098 Rocket 4.2 18:25:36 10° S 18:32:39 69° E 18:40:02 10° NNE
Cosmos 1602 Rocket 4.3 18:28:31 10° SSW 18:31:35 45° SSW 18:31:35 45° SSW
Cosmos 1818 3.6 18:28:39 10° SW 18:34:06 78° NW 18:34:53 64° NNE
YAOGAN 1 4.2 18:31:43 10° SSW 18:35:39 34° W 18:39:37 10° NNW
Cosmos 1428 Rocket 4.4 18:30:01 10° S 18:36:18 82° E 18:42:39 10° N
CSL-04 Rocket 4.1 18:34:02 10° S 18:39:21 60° WSW 18:44:48 10° NNW
USA 234 3.2 18:40:19 62° ENE 18:41:12 69° NNE 18:47:43 10° WNW
Iridium 4 Rocket 4.0 18:40:15 10° N 18:45:56 63° W 18:51:12 10° SSW
Cosmos 1092 Rocket 4.2 18:40:20 10° SSW 18:46:30 67° WNW 18:52:39 10° N
ATLAS 5 CENTAUR R/B 3.5 18:43:53 10° WNW 18:47:22 23° NNW 18:47:38 22° NNW
Cosmos 1812 Rocket 4.5 18:44:54 10° NNW 18:48:54 47° W 18:48:54 47° W
Meteor 2-15 Rocket 4.5 18:45:52 10° N 18:51:11 66° N 18:51:11 66° N
Cosmos 2344 4.2 18:44:55 10° NW 18:54:04 88° NE 18:59:35 39° SE
SJ 16-02 2.8 18:51:50 10° SW 18:55:52 35° WNW 18:55:59 35° NW
CZ-4C R/B 4.0 19:01:12 10° WNW 19:06:00 24° N 19:06:30 24° N
COSMOS 2406 4.0 19:10:39 10° NNW 19:14:49 48° NW 19:14:49 48° NW
Lacrosse 5 4.0 19:20:22 10° WNW 19:24:00 20° SW 19:24:15 20° SW
CZ-2C R/B 3.9 19:27:19 39° WSW 19:27:19 39° WSW 19:31:10 10° SW
COSMOS 2455 4.4 19:31:40 10° W 19:36:47 28° NNW 19:37:13 28° NNW
Cosmos 1833 Rocket 4.2 19:33:31 10° NW 19:36:25 30° NW 19:36:25 30° NW
USA 281 4.4 19:43:33 34° NNW 19:43:33 34° NNW 19:47:00 10° NNW
Cosmos 2082 Rocket 4.1 19:35:41 10° NNW 19:37:48 24° NNW 19:37:48 24° NNW
USA 267 4.4 19:51:34 34° SW 19:51:34 34° SW 19:54:57 10° WSW
USA 229 DEB 4.5 19:42:52 10° NW 19:49:18 52° WSW 19:49:18 52° WSW
USA 229 4.5 19:42:57 10° NW 19:49:21 52° WSW 19:49:21 52° WSW
ATLAS 2AS CENTAUR R/B 4.4 20:07:59 10° NW 20:12:56 26° NNW 20:12:56 26° NNW
